Regional Weather Roundup
Issued by NWS

Current Version | Previous Version | Text Only | Print | Product List | Glossary On
Versions: 1 2 3 4 5 6 7 8 9 10 11 12 13 14 15 16 17 18 19 20 21 22 23 24 25 26 27 28 29 30 31 32 33 34 35 36 37 38 39 40 41 42 43 44 45 46 47 48 49 50
000
ASCA44 KEWX 301320
RWRMX

LATIN AMERICA AND CARIBBEAN REGIONAL WEATHER ROUNDUP
NATIONAL WEATHER SERVICE AUSTIN/SAN ANTONIO TX
800 AM CDT FRI SEP 30 2022

NOTE: "FAIR" INDICATED FEW OR NO CLOUDS BELOW 12,000 FEET WITH NO
SIGNIFICANT WEATHER AND/OR OBSTRUCTIONS TO VISIBILITY.

BAJA CALIFORNIA

CITY           SKY/WX    TMP DP  RH WIND       PRES   REMARKS
LORETO         CLEAR     81  64  57 NW9       29.82
LA PAZ         CLEAR     75  70  83 S7        29.86
MEXICALI       CLEAR     77  64  65 E5        29.81
S.J. DEL CABO  CLEAR     73  66  78 W5        29.88R
TIJUANA        FOG       64  64 100 CALM      29.93S VSB 1

NORTHWESTERN MEXICO

CITY           SKY/WX    TMP DP  RH WIND       PRES   REMARKS
CULIACAN       CLEAR     75  70  83 NE3       29.85
DURANGO        PTCLDY    46  41  81 NE2       30.28
HERMOSILLO     PTCLDY    77  70  78 SE5       29.88
OBREGON        CLEAR     72  68  88 E3        29.82

NORTHEASTERN MEXICO

CITY           SKY/WX    TMP DP  RH WIND       PRES   REMARKS
MONCLOVA       CLEAR     63  55  77 S7        30.10
MONTERREY      CLEAR     63  57  82 NW7       30.05S
NUEVO LAREDO   CLEAR     63  57  82 CALM      30.05
REYNOSA        CLEAR     68  59  73 NW3       30.03
SALTILLO       CLEAR     54  39  58 CALM      30.22
TORREON        CLEAR     63  46  55 CALM      30.16
CD. VICTORIA   CLEAR     63  63 100 CALM      30.07S

WESTERN MEXICO

CITY           SKY/WX    TMP DP  RH WIND       PRES   REMARKS
AGUASCALIENTES CLEAR     43  37  81 NE6       30.28  WCI  39
COLIMA         PTCLDY    70  66  88 CALM      30.00R
DEL BAJIO      CLEAR     48  43  81 NE7       30.32S WCI  45
GUADALAJARA    CLEAR     54  45  71 E6        30.21
MAZATLAN       PTCLDY    75  75 100 CALM      29.86R
P. VALLARTA    PTCLDY    77  75  94 NE2       29.86R
URUAPAN        CLEAR     57  55  94 CALM      30.15R
ZACATECAS      CLEAR     43  37  81 MISG      30.29R

CENTRAL MEXICO

CITY           SKY/WX    TMP DP  RH WIND       PRES   REMARKS
CUERNAVACA     PTCLDY    61  57  88 CALM      30.12S
MEXICO CITY    CLOUDY    52  43  71 E10       30.35S
MORELIA        CLEAR     45  45 100 CALM      30.25
POZA RICA      CLEAR     70  64  83 W9        30.03S
QUERETARO      PTCLDY    45  45 100 E5        30.34S WCI  42
S. LUIS POTOSI CLEAR     43  39  87 CALM      30.30R
TAMPICO        CLEAR     72  70  94 W5        30.03R
TOLUCA         PTCLDY    45  43  93 NW3       30.36S FOG

SOUTHERN MEXICO

CITY           SKY/WX    TMP DP  RH WIND       PRES   REMARKS
ACAPULCO       MOCLDY    77  72  83 N6        29.83S
B. DE HUATULCO MOCLDY    73  68  83 CALM      29.91
OAXACA         PTCLDY    54  52  94 CALM      30.23R
P. ESCONDIDO   PTCLDY    73  63  68 NE7       29.85S
VERACRUZ       CLEAR     68  68 100 NW3       29.98R
ZIHUATANEJO    CLEAR     77  72  83 NE3       29.86R

YUCATAN PENINSULA

CITY           SKY/WX    TMP DP  RH WIND       PRES   REMARKS
CAMPECHE       PTSUNNY   70  68  94 SE6       29.92R
CANCUN         PTSUNNY   75  72  88 CALM      29.86R
CHETUMAL       MOSUNNY   73  70  88 CALM      29.90
CD. DEL CARMEN MOSUNNY   75  72  88 SW5       29.93
COZUMEL        CLOUDY    81  77  89 N16       29.85R
MERIDA         MOSUNNY   70  66  88 CALM      29.90R
MINATITLAN     PTSUNNY   72  72 100 CALM      29.94
TAPACHULA      MOSUNNY   75  75 100 CALM      29.83R
TUX. GUTIERREZ MOSUNNY   68  64  88 CALM      30.02
VILLAHERMOSA   DRIZZLE   72  70  94 SW8       29.97S

CENTRAL AMERICA

CITY           SKY/WX    TMP DP  RH WIND       PRES   REMARKS
BELIZE CITY      N/A     73  72  94 W2        29.90R
MANAGUA        MOSUNNY   75  73  94 S5        29.83R

CARIBBEAN

CITY           SKY/WX    TMP DP  RH WIND       PRES   REMARKS
ARUBA          MOSUNNY   82  73  74 S5        29.83R
CURACAO        MOSUNNY   82  73  74 SE14      29.86R
KINGSTON       PTSUNNY   82  75  78 NW5       29.80R
NASSAU         MOSUNNY   82  75  78 W3        29.78S
SAN JUAN       MOSUNNY   84  75  74 CALM      29.87R HX  92
SANTO DOMINGO  MOSUNNY   82  73  74 S5        29.86R
ST. CROIX      PTSUNNY   81  73  78 CALM      29.88S
ST. KITTS      PTSUNNY   82  75  78 S6        29.89R
ST. MAARTEN    PTSUNNY   82  75  78 E6        29.92R
ST. THOMAS     HVY RAIN  77  73  88 NW10      29.87

$$




USA.gov is the U.S. government's official web portal to all federal, state and local government web resources and services.